ROMMA est une association bénévole à but non lucratif. Votre soutien est indispensable : ADHERER à ROMMA ou FAIRE un DON

Crempigny-Bonneguête - (74, Haute-Savoie)

Albanais-Montagne des Princes (500 m)   Longitude: 05° 54' 5" E   Latitude: 45° 57' 0" N Station partenaire n°10
 

Détail journalier du     <<     >>

Température Precipitation Humidité Pression Vent Dir Rafale Dir. rafale Ensol. 20 cm au dessus du sol
Heure (°C) (mm) (%) (hPa) (km/h) (km/h) (min) (°C)
01:00 8.507710181NNO5NNO07.2
02:00 8.607910183NNO6NNO07.8
03:00 7.908110183NO6NNO07.2
04:00 6.908210182NO6NO06.1
05:00 7.008410192NE6ENE06.7
06:00 7.208510192NO6NNO06.7
07:00 7.108710192NO6N06.7
08:00 7.308810192S8SSO07.2
09:00 8.10.29210192O13SSE08.3
10:00 8.708910203SO10OSO09.4
11:00 9.707810207SSO31SO510.6
12:00 9.7076102022SO50OSO09.4
13:00 9.907910208ESE35SSE010.0
14:00 9.708010208SE24ESE09.4
15:00 10.108210216SE21SSE010.6
16:00 10.00.28410208S21SSO010.0
17:00 10.308210208SE26SE010.6
18:00 10.508410207SE21SE010.6
19:00 10.708310214S13S010.6
20:00 10.608410213SO8SO4010.0
21:00 10.108510213SSO8S09.4
22:00 9.608610221SSO6O08.3
23:00 9.408510224O11NO08.9
minuit 8.908710225NO10NO07.8

Graphique du 16-04-2019

 

Serveur OMMA